Lid_Strength_Index
6 8 9 8 7 8 9 9 10 8 7 8 8 7 6 5 5 5 4 4 3 3 2 1 1 0 0 -0 -0 -0 -0 0 1 1 1 1 2 1 0 -0 -0 -0 -1 -0
8 9 7 7 7 8 9 10 9 8 7 8 8 8 6 5 5 4 4 4 4 3 2 2 1 1 0 0 -0 0 -0 -0 0 1 1 1 1 1 0 -0 -0 -0 -0 -0
9 8 7 8 8 9 9 10 9 9 8 7 8 9 7 6 5 4 4 4 3 3 3 2 2 1 1 0 0 0 0 0 0 0 0 1 0 1 1 1 1 0 -0 -0
9 7 8 9 9 8 10 8 9 9 10 11 8 13 8 7 7 6 5 4 4 4 3 3 2 2 1 1 0 -0 -1 -0 -0 -0 1 1 2 2 1 1 0 0 -0 -0
9 9 9 10 9 8 9 8 8 9 10 10 10 11 9 7 8 6 5 5 5 4 4 3 3 2 1 1 0 -0 -0 -0 0 -0 0 1 2 1 1 1 1 0 0 -0
7 6 7 7 7 8 7 8 8 8 9 13 10 11 10 9 8 7 6 6 5 5 4 4 2 2 1 1 1 0 -0 0 -0 0 0 1 1 2 2 1 1 1 1 0
8 8 7 7 9 7 8 9 13 14 13 14 9 11 10 8 7 7 7 6 5 4 4 4 3 3 2 1 1 1 1 1 0 0 1 1 1 1 2 1 2 1 1 1
11 12 8 7 8 9 8 9 13 18 16 13 9 13 10 7 6 6 6 6 5 5 4 4 3 2 2 1 1 1 1 1 0 0 1 1 1 1 1 1 1 1 1 1
12 12 8 8 7 8 9 11 8 12 11 14 12 10 7 7 8 8 7 6 6 5 4 3 3 2 2 1 1 1 1 1 1 0 1 1 1 1 1 1 1 1 -0 0
9 12 9 9 8 8 9 8 12 11 18 18 13 12 11 8 8 7 7 6 5 4 3 3 2 2 2 1 1 1 1 1 1 0 0 1 1 1 0 0 1 1 0 0
8 10 10 9 10 11 10 11 10 10 12 18 18 13 9 9 7 7 6 5 4 4 3 3 2 2 2 1 1 1 1 1 1 1 1 1 1 0 0 1 0 0 -0 -0
9 10 13 11 8 8 9 10 10 16 15 13 15 14 7 7 6 6 5 4 4 3 3 3 2 2 2 2 1 1 1 1 1 1 1 1 1 1 0 0 0 -0 0 -0
8 11 14 12 10 9 11 10 9 10 10 14 16 13 7 6 6 5 5 4 4 4 3 3 2 2 2 2 2 2 1 1 1 1 0 0 0 1 1 0 0 0 -0 -0
8 10 12 15 12 10 12 11 10 10 14 14 13 11 8 6 6 5 5 4 4 4 4 3 3 2 2 2 2 2 2 1 1 1 1 1 1 1 1 1 0 0 -0 0
9 13 11 10 10 10 11 12 11 12 11 12 11 10 8 6 6 5 5 4 4 4 4 3 3 3 2 2 2 1 1 1 1 2 2 1 0 0 0 0 1 1 0 0
9 13 11 13 11 11 13 12 11 11 10 10 9 9 6 5 5 5 5 5 5 4 4 3 3 2 2 2 2 1 1 1 1 2 2 2 1 1 1 1 1 0 1 1
11 11 13 15 12 13 15 12 11 10 9 9 11 8 6 6 6 6 5 5 5 4 4 3 3 3 2 2 1 2 1 1 1 1 2 2 2 1 1 1 1 1 1 1
11 11 12 14 13 18 12 9 8 9 8 7 7 7 6 6 5 5 4 4 4 4 4 3 3 2 2 1 1 1 1 1 1 1 1 2 2 2 2 1 1 1 1 1
9 11 14 16 16 13 11 9 9 10 10 7 7 7 6 5 5 5 4 4 4 4 4 4 3 3 2 2 1 2 1 1 1 1 1 1 2 2 2 3 2 1 1 1
10 10 13 14 17 18 11 8 6 7 13 7 6 7 7 6 11 8 6 6 6 5 5 5 5 4 3 3 3 3 3 2 2 2 1 1 2 2 2 2 2 1 1 2
13 13 15 14 16 12 8 7 6 15 13 6 6 6 7 9 8 8 8 8 7 7 8 7 7 7 6 5 4 4 4 3 2 2 2 1 1 1 1 1 1 2 1 1
13 14 15 13 16 16 7 7 11 8 6 6 7 7 9 9 9 10 9 9 9 9 9 9 9 9 7 6 5 6 6 3 2 2 2 1 1 1 2 1 1 1 1 1
13 10 12 11 11 7 5 6 4 5 7 7 9 8 9 11 10 10 10 10 10 10 10 9 8 8 8 8 7 8 6 4 4 4 3 2 2 2 2 2 1 2 1 2
8 7 9 9 8 7 5 4 5 6 7 8 8 9 10 11 11 12 11 11 11 11 11 10 9 9 8 7 7 6 6 6 5 6 5 4 3 3 2 2 2 2 2 2
9 7 8 9 7 6 5 5 5 6 7 9 9 9 10 12 12 12 13 13 12 12 11 10 10 9 9 8 7 7 6 5 7 6 6 5 4 4 3 2 2 2 1 1
7 8 10 11 6 7 6 5 6 9 9 9 10 11 11 12 13 13 14 14 13 13 12 12 10 10 9 8 8 8 6 6 6 7 6 6 5 5 4 4 3 6 7 8